Regional Weather Roundup
Issued by NWS

Home | Current Version | Previous Version | Graphics & Text | Print | Product List | Glossary On
Versions: 1 2 3 4 5 6 7 8 9 10 11 12 13 14 15 16 17 18 19 20 21 22 23 24 25 26 27 28 29 30 31 32 33 34 35 36 37 38 39 40 41 42 43 44 45 46 47 48 49 50
000
ASUS43 KDTX 252010
RWRMI
MICHIGAN HOURLY REGIONAL WEATHER ROUNDUP
NATIONAL WEATHER SERVICE DETROIT/PONTIAC MI
300 PM EST TUE NOV 25 2014

NOTE: "FAIR" INDICATES FEW OR NO CLOUDS BELOW 12,000 FEET WITH NO
SIGNIFICANT WEATHER AND/OR OBSTRUCTION TO VISIBILITY.

MIZ047>049-052>055-059>063-066>070-074>076-081>083-252100-
SOUTHEAST LOWER MICHIGAN

CITY           SKY/WX    TMP DP  RH WIND       PRES   REMARKS
ADRIAN         CLOUDY    29  21  72 W10       30.09R WCI  20
ALMA           CLOUDY    32  22  68 W14G20    30.01R WCI  22
ANN ARBOR      CLOUDY    30  21  69 W15       30.06R WCI  19
BAD AXE        LGT SNOW  31  29  89 NW10      29.96R WCI  23
CARO           CLOUDY    32  23  69 SW13G18   29.97R WCI  22
DETROIT CITY   CLOUDY    34  22  61 W14       30.05R WCI  25
DETROIT        CLOUDY    32  22  66 W12       30.07R WCI  23
FLINT          CLOUDY    33  24  69 W12G23    30.01R WCI  24
GROSSE ILE     CLOUDY    32  25  74 SW13G20   30.06R WCI  22
HILLSDALE      CLOUDY    28  23  82 W7        30.06R WCI  21
HOWELL         CLOUDY    29  25  83 SW10G18   30.02R WCI  20

CITY           SKY/WX    TMP DP  RH WIND       PRES   REMARKS
LAMBERTVILLE   CLOUDY    32  23  69 W12       30.09R WCI  23
LANSING        FLURRIES  30  22  72 W17       30.03R WCI  18
LAPEER         CLOUDY    31  26  84 W12       30.00R WCI  21
MASON          CLOUDY    31  24  78 W7        30.03R WCI  24
MONROE         CLOUDY    32  25  74 W16       30.07R WCI  21
MT. CLEMENS    CLOUDY    34  23  64 W13       30.02R WCI  25
PONTIAC        FLURRIES  30  22  72 W12G20    30.01R WCI  20
PORT HOPE        N/A     34  25  69 W8G21     29.93R WCI  27
PORT HURON     CLOUDY    32  23  69 SW6       30.02R WCI  26
TRI CITIES     CLOUDY    34  23  64 W16       29.99R WCI  24
TROY           CLOUDY    33  23  65 W9G17     30.05R WCI  26
SAGINAW HB     CLOUDY    34  25  69 W12       29.99R WCI  25
$$
MIZ043>046-050>051-056>058-064>065-071>073-077>080-252100-
SOUTHWEST LOWER MICHIGAN

CITY           SKY/WX    TMP DP  RH WIND       PRES   REMARKS
BATTLE CREEK   CLOUDY    30  21  69 W14       30.06R WCI  19
BENTON HARBOR  CLOUDY    28  21  75 W10       30.10R WCI  19
BIG RAPIDS     CLOUDY    29  26  86 W10       29.98R WCI  20
COLDWATER      CLOUDY    29  23  79 SW12G18   30.08R WCI  19
FREMONT        CLOUDY    28  24  82 W8        30.02R WCI  20
HOLLAND        CLOUDY    32  22  66 W13       30.07R WCI  22
GRAND RAPIDS   CLOUDY    30  22  72 W13       30.04R WCI  20
IONIA          CLOUDY    31  23  71 W13       30.02R WCI  22
KALAMAZOO      CLOUDY    29  21  72 W9        30.07R WCI  20
LUDINGTON      CLOUDY    29  23  76 W5        30.02R WCI  24
MARSHALL       CLOUDY    27  23  84 SW10      30.06R WCI  17
MOUNT PLEASANT CLOUDY    32  24  71 W13       29.99R WCI  22
MUSKEGON       CLOUDY    31  20  63 W12       30.05R WCI  22
SOUTH HAVEN    CLOUDY    31  23  73 W9        30.09R WCI  23
$$
MIZ016>042-252100-
NORTHERN LOWER MICHIGAN

CITY           SKY/WX    TMP DP  RH WIND       PRES   REMARKS
ALPENA         CLOUDY    29  25  85 W8        29.92R WCI  21
BEAVER ISLAND  CLOUDY    30  25  81 NW12G21   29.95R WCI  21
BELLAIRE       CLOUDY    31  24  77 W6        29.97R WCI  25
CADILLAC       CLOUDY    28  22  81 W10       29.94R WCI  18
CHARLEVOIX     CLOUDY    30  24  78 W15       29.97R WCI  19
FRANKFORT      CLOUDY    29  23  79 NW9       29.99R WCI  20
GAYLORD        CLOUDY    27  22  81 W12G21    29.90R WCI  17
GRAYLING       CLOUDY    28  23  82 W9G18     29.93R WCI  19
HARBOR SPRINGS LGT SNOW  29  25  86 W7        29.93R WCI  22
HOUGHTON LAKE  CLOUDY    29  21  72 W14       29.94R WCI  18
MANISTEE       CLOUDY    28  21  74 W8        30.00S WCI  20
OSCODA         LGT SNOW  32  28  84 W10       29.93R WCI  23
PELLSTON       PTSUNNY   29  23  78 W12       29.92R WCI  19
ROGERS CITY    LGT SNOW  29  27  94 NW7       29.92R WCI  21
TRAVERSE CITY  FLURRIES  30  22  72 W12       29.97R WCI  20
$$
MIZ007>008-015-252100-
EASTERN UPPER MICHIGAN

CITY           SKY/WX    TMP DP  RH WIND       PRES   REMARKS
KINROSS        CLOUDY    28  27  93 NW6       29.89R WCI  22
MACKINAC ISLAN PTSUNNY   29  25  84 NW12G20   29.91R WCI  19
NEWBERRY       FLURRIES  26  21  83 W14G20    29.91R WCI  14
S. S. MARIE    FLURRIES  26  19  74 NW8       29.92R WCI  18
MUNISING         N/A     27  20  75 W7        29.96R WCI  19
$$
MIZ004>006-011>014-085-252100-
CENTRAL UPPER MICHIGAN

CITY           SKY/WX    TMP DP  RH WIND       PRES   REMARKS
MANISTIQUE     CLOUDY    28  21  76 NW12G17   29.95R WCI  17
ESCANABA       CLOUDY    27  12  54 W12       29.98R WCI  16
MENOMINEE      CLOUDY    27  16  63 NW8       29.99R WCI  18
SAWYER-GWINN   FLURRIES  23  14  68 W7        29.95R WCI  15
$$
MIZ001>003-009>011-084-252100-
WESTERN UPPER MICHIGAN

CITY           SKY/WX    TMP DP  RH WIND       PRES   REMARKS
IRON MOUNTAIN  MIX PCPN  24  11  57 NW8       29.95R WCI  15
HOUGHTON       PTSUNNY   19   9  65 W14       29.94S WCI   6
COPPER HARBOR    N/A     24  15  68 NW10G17   29.96R WCI  14
IRONWOOD       SUNNY     18  10  73 SW6       29.94F WCI   9
$$

ABBREVIATIONS USED IN REMARKS
   TC - TEMPERATURE IN CELSIUS
  WCI - WIND CHILL INDEX
   HX - HEAT INDEX
  VSB - VISIBILITY



USA.gov is the U.S. government's official web portal to all federal, state and local government web resources and services.